Flag for Germany Weather past 2 weeks in Weiden in der Oberpfalz, Bavaria, Germany

Now
49 °F

Low clouds.


Feels Like: 48 °F
Forecast: 40 / 56 °F
Wind: 3 mph from West

Location: Weiden

Current Time: Sep 22, 2014 at 9:19:54 AM

Latest Report: Sep 22, 2014 at 8:00 AM


Visibility: 3 mi

Pressure: 30.02 "Hg

Humidity: 94%

Dew point: 47 °F

Location of Weiden in der OberpfalzLocation

Historic Weather in Weiden in der Oberpfalz — Graph

°F

Weiden in der Oberpfalz temperature yesterday

Maximum temperature yesterday: 61 °F (at 3:00 PM)
Minimum temperature yesterday: 54 °F (at 11:00 PM)
Average temperature yesterday: 57 °F

Past Weeks' High & Low Weather Summary

 TemperatureHumidityPressure
High76 °F (Sep 7, 3:00 PM)100% (Sep 20, 11:00 PM)30.12 "Hg (Sep 20, 11:00 PM)
Low45 °F (Sep 11, 7:00 AM)43% (Sep 9, 4:00 PM)29.87 "Hg (Sep 12, 10:00 AM)
Average60 °F84%29.99 "Hg
* Reported Sep 7 8:00 AM — Sep 22 8:00 AM, Weiden in der Oberpfalz, Weather by CustomWeather, © 2014

Note: Actual official high and low records may vary slightly from our data, if they occured in-between our weather recording intervals... More about our weather records

Advertising

Weiden in der Oberpfalz weather history for previous 24 hours

 ConditionsComfort  
Time TempWeatherWind HumidityBarometerVisibility
8:00 AM
Sep 22
49 °FLow clouds.3 mph94%30.02 "Hg3 mi
7:00 AM49 °FLight rain. Overcast.3 mph96%30.02 "Hg2 mi
6:00 AM50 °FLight rain. Overcast.3 mph92%30.01 "Hg4 mi
5:00 AM50 °FFog.2 mph95%30.01 "Hg4 mi
4:00 AM51 °FLow clouds.3 mph94%30.00 "Hg6 mi
3:00 AM51 °FLow clouds.3 mph95%30.00 "Hg7 mi
2:00 AM53 °FLow clouds.2 mph94%29.99 "Hg9 mi
1:00 AM53 °FOvercast.2 mph95%29.98 "Hg11 mi
12:00 AM54 °FOvercast.3 mph92%29.97 "Hg16 mi
11:00 PM
Sep 21
54 °FOvercast.1 mph92%29.96 "Hg14 mi
10:00 PM54 °FOvercast.2 mph91%29.95 "Hg22 mi
9:00 PM57 °FLight rain. Low clouds.3 mph94%29.91 "Hg6 mi
8:00 PM59 °FRain. Low clouds.1 mph95%29.89 "Hg3 mi
7:00 PM59 °FLight rain. Low clouds.2 mph91%29.88 "Hg10 mi
6:00 PM60 °FLow clouds.2 mph90%29.88 "Hg19 mi
5:00 PM60 °FLight rain. Low clouds.3 mph90%29.88 "Hg9 mi
4:00 PM61 °FOvercast.2 mph86%29.88 "Hg18 mi
3:00 PM61 °FLow clouds.2 mph89%29.90 "Hg12 mi
2:00 PM60 °FLight rain. Low clouds.1 mph93%29.92 "Hg3 mi
1:00 PM60 °FLight rain. Low clouds.2 mph93%29.94 "Hg4 mi
12:00 PM60 °FDrizzle. Low clouds.3 mph90%29.94 "Hg7 mi
11:00 AM59 °FLow clouds.2 mph91%29.95 "Hg9 mi
10:00 AM58 °FLow clouds.1 mph97%29.95 "Hg5 mi
9:00 AM57 °FLight rain. Low clouds.1 mph99%29.96 "Hg2 mi
Weather by CustomWeather, © 2014

See weather overviewHow to use our weather pages